Regional Weather Roundup
Issued by NWS

Home | Current Version | Previous Version | Text Only | Print | Product List | Glossary On
Versions: 1 2 3 4 5 6 7 8 9 10 11 12 13 14 15 16 17 18 19 20 21 22 23 24 25 26 27 28 29 30 31 32 33 34 35 36 37 38 39 40 41 42 43 44 45 46 47 48 49 50
000
ASUS44 KMEG 051738
RWRTN

TENNESSEE HOURLY STATE WEATHER ROUNDUP
NATIONAL WEATHER SERVICE MEMPHIS TN
1200 PM CDT SAT SEP 05 2015

TNZ002-004-019-021-049-052-054-088>092-051800-
WEST TENNESSEE

CITY           SKY/WX    TMP DP  RH WIND       PRES   REMARKS
MEMPHIS INTL   MOSUNNY   93  69  45 S5        30.07F HX  98
NWS MEMPHIS      N/A     92 N/A N/A MISG        N/A
JACKSON        SUNNY     90  70  51 CALM      30.08F HX  95
DYERSBURG      SUNNY     90  72  55 SE5       30.09F HX  96
UNION CITY     SUNNY     91  70  49 SE6       30.08F HX  97
PARIS          SUNNY     90  66  45 NE7       30.11F HX  92
LEXINGTON      SUNNY     91  70  49 NE5       30.08F HX  97
$$

TNZ008-025-027-028-033-062-065-066-051800-
NORTH MIDDLE TENNESSEE

CITY           SKY/WX    TMP DP  RH WIND       PRES   REMARKS
NASHVILLE      MOSUNNY   91  65  41 CALM      30.11F HX  93
CLARKSVILLE    SUNNY     91  66  43 VRB6      30.10F HX  93
SMYRNA         SUNNY     MM  MM  MM SW3       30.11F
COOKEVILLE     SUNNY     90  72  55 VRB5      30.13F HX  96
CROSSVILLE     SUNNY     84  65  52 VRB6      30.19F
$$

TNZ061-075-076-078-094-096-097-051800-
SOUTH MIDDLE TENNESSEE

CITY           SKY/WX    TMP DP  RH WIND       PRES   REMARKS
FAYETTEVILLE   SUNNY     84  70  61 CALM      30.12F
TULLAHOMA      SUNNY     84  70  61 S6        30.14F
WINCHESTER     SUNNY     84  72  65 E8        30.13F
MCMINNVILLE    SUNNY     88  73  62 VRB3      30.13F HX  96
COLUMBIA       SUNNY     91  72  52 VRB3      30.09F HX  98
SHELBYVILLE    SUNNY     88  73  62 CALM      30.13F HX  96
$$

TNZ017-018-042-046-047-051800-
NORTHEAST TENNESSEE

CITY           SKY/WX    TMP DP  RH WIND       PRES   REMARKS
TRI CITIES     MOSUNNY   84  65  52 VRB5      30.19F
ELIZABETHTON   SUNNY     81  64  57 NE5       30.20F
$$

TNZ012-013-036-069-073-074-051800-
CENTRAL EAST TENNESSEE

CITY           SKY/WX    TMP DP  RH WIND       PRES   REMARKS
KNOXVILLE      MOSUNNY   84  73  69 CALM      30.14F HX  90
OAK RIDGE      SUNNY     86  67  52 CALM      30.16F
GATLINBURG     SUNNY     88  63  42 CALM      30.13F
MORRISTOWN     SUNNY     84  64  51 E7        30.17F
$$

TNZ083-085-099-051800-
SOUTHEAST TENNESSEE

CITY           SKY/WX    TMP DP  RH WIND       PRES   REMARKS
CHATTANOOGA    MOSUNNY   86  66  51 VRB5      30.14F
$$

SKY/WX REPORTED AS FAIR MEANS FEW OR NO CLOUDS BELOW
12 THOUSAND FEET.


USA.gov is the U.S. government's official web portal to all federal, state and local government web resources and services.